CAPE
687 1188 1473 1672 1697 1548 1386 1388 1411 1493 1773 2083 2235 2307 2026 1990 1986 1940 2054 2127 2338 2497 2371 1933 1995 2051 2010 1916 2198 1943 1781 1794 1659 1743 1964 1940 1660 1528 1465 1732 1605 1341 1726
810 1301 1469 1715 1806 1685 1523 1440 1512 1628 1849 2116 2212 2308 2248 2161 2084 2048 2114 2170 2432 2601 2204 1868 1899 1948 1650 1884 1680 1679 1688 1496 1551 1781 1992 1814 1565 1618 1656 1703 1474 1505 1544
1148 1384 1515 1609 1893 1808 1716 1632 1744 1896 1999 2066 2156 2209 2291 2254 2231 2145 2132 2208 2561 2371 1998 1839 1922 1992 1821 1689 1535 1643 1564 1570 1671 1709 1912 1223 1376 1648 1504 1690 1643 1493 1466
1307 1404 1555 1752 1944 1865 1729 1748 1855 2046 2094 2105 2115 2180 2250 2294 2291 2203 2156 2359 2521 2477 2145 1895 1946 1918 1923 1546 1439 1540 1619 1620 1587 1630 1213 1197 1254 1598 1494 1424 1489 1514 1495
1403 1438 1586 1860 1943 1902 1845 1879 1947 1983 1945 2017 2065 2210 2267 2361 2428 2361 2239 2381 2505 2561 2407 1982 2021 2105 1527 1303 1358 1466 1538 1491 1471 1303 1014 996 1289 1446 1399 1521 1566 1531 1548
1505 1566 1709 1897 1970 1958 1980 2016 2036 1878 1767 1819 2008 2236 2348 2459 2538 2364 2174 2421 2635 2660 2582 2425 2324 1767 1267 1226 1280 1292 1243 1311 1363 1258 1101 1070 1191 1481 1466 1339 1526 1464 1429
1562 1614 1732 1902 1970 2002 2124 2121 2027 1823 1675 1759 1967 2141 2257 2399 2493 2239 2061 2323 2265 2526 2499 2388 1943 1396 1195 1191 1225 1096 1123 1137 1236 1227 1089 812 943 1604 1466 1434 1406 1495 1411
1494 1618 1699 1856 1919 1972 2035 2007 1962 1814 1694 1721 1865 2037 2240 2240 2179 2090 2027 2200 2181 2263 2186 1974 1433 1242 1199 1217 1087 1010 962 1030 1048 1065 1015 833 1057 1364 1392 1361 1258 1270 1237
1428 1574 1699 1810 1876 1896 1885 1882 1908 1824 1773 1736 1751 1878 2049 2021 1912 1956 1981 1995 1820 1695 1686 1523 1237 1148 1220 1193 934 840 833 855 814 965 889 829 1227 1543 1349 1328 1189 1274 1240
1383 1537 1731 1842 1916 1879 1809 1801 1864 1854 1823 1784 1755 1762 1857 1862 1805 1762 1791 1788 1581 1453 1587 1403 1170 1133 1153 1116 985 835 832 779 777 839 790 697 1060 1291 1414 1125 1143 1240 1152
1196 1414 1540 2118 2053 1743 1810 1907 1887 1910 1904 1860 1828 1795 1796 1749 1758 1666 1636 1620 1347 1192 1444 1343 1135 1059 1083 1084 982 773 897 891 726 678 723 520 964 1421 1246 1170 1146 1067 940
826 1079 1257 1531 2032 1745 1513 1538 1640 1859 1892 1929 1883 1844 1799 1730 1657 1612 1549 1523 1267 988 1211 1263 1129 1035 1068 1013 893 823 731 872 755 687 594 506 1037 1281 1277 1062 1108 922 818
846 751 886 1089 1536 1408 1486 1455 1621 2295 1838 1913 1682 1686 1657 1789 1661 1530 1465 1429 1184 855 832 1068 995 858 942 951 842 775 766 805 705 633 515 634 977 1265 1198 932 816 661 477
1619 1256 796 963 1015 1224 1223 1387 1774 2292 1640 1706 1565 1289 1348 1750 1784 1539 1437 1362 1140 875 747 791 870 785 736 846 789 654 700 612 503 505 489 632 798 1268 1112 1087 802 603 480
1551 1756 1639 1069 1110 1185 1161 1165 1207 1632 1811 1427 1093 1297 1260 1572 1863 1647 1436 1349 1149 884 721 640 438 448 318 594 579 531 551 447 343 251 414 592 541 743 1280 1030 810 659 485
73 1443 1826 1829 1539 1299 1050 967 1056 1155 1028 1509 2093 1625 1562 2031 2171 1709 1596 1338 1239 1016 851 757 550 373 309 452 539 462 323 299 121 124 141 343 414 433 596 920 818 680 535
0 21 1517 1915 1935 1680 1372 1040 863 862 806 1049 1748 1989 1600 1669 1794 1632 1615 1387 1232 1164 1007 801 620 459 242 439 457 292 210 85 59 48 45 78 163 215 268 468 561 660 492
0 0 358 1731 1893 2025 1817 1490 1147 1121 1032 1092 1520 1834 1538 1548 1817 1696 1484 1354 1295 1185 1064 807 717 507 302 346 186 115 73 27 42 60 61 55 97 141 304 369 378 350 351
0 0 0 997 1935 1870 2012 1991 1608 1373 1160 1098 830 952 1109 1463 1619 1502 1410 1182 1156 1107 1025 909 799 641 290 217 116 65 50 33 41 57 68 56 45 123 170 126 132 186 158
0 0 0 2 1649 1959 1905 2019 1924 1680 1364 1438 1042 918 979 1227 1263 1178 1155 1064 1405 809 765 803 788 663 433 233 84 63 34 38 41 42 37 32 38 71 77 33 27 24 22
0 0 0 0 758 1925 2016 1966 2033 1881 1775 1657 1308 899 840 969 1047 1018 975 922 908 827 688 695 873 558 532 297 138 59 45 48 1 20 36 22 18 45 56 24 5 0 8
0 0 0 0 143 1851 1854 1874 1821 1688 1613 1546 1523 1044 853 904 987 1126 1100 1099 1041 900 764 841 1120 535 387 377 80 74 39 31 25 29 19 27 26 24 46 24 1 0 0
0 0 0 0 2 1571 1813 1961 1861 1838 1580 1744 1665 1371 1256 1323 1332 1346 1370 1098 1282 1627 610 928 995 905 331 316 333 39 44 12 5 7 12 19 28 23 37 38 7 0 0
0 40 0 0 0 873 1743 1797 1505 1516 1383 1154 1504 1813 1413 1568 1671 1674 1606 1379 1224 766 642 800 921 794 546 249 54 58 25 35 19 0 4 7 5 18 30 17 0 0 0
0 0 188 88 141 11 1704 1702 1558 1428 1356 1106 1126 1274 1153 1333 1432 1688 1453 1296 665 316 795 806 661 1009 288 255 108 17 46 35 38 13 0 0 18 16 3 6 3 0 0
0 0 17 277 483 105 1640 1745 1533 1365 1335 1275 1050 1266 1188 1300 1652 1309 1181 844 324 291 583 708 785 720 325 193 177 254 50 35 33 31 10 4 18 12 13 10 7 0 0
CIN
-669 -534 -383 -263 -213 -240 -287 -282 -258 -232 -185 -130 -103 -86 -94 -80 -60 -52 -33 -15 -0 -0 -0 -0 -0 -0 -0 -2 -3 -10 -19 -20 -15 -7 -0 -0 -0 -0 -0 -0 -1 -1 -0
-637 -509 -424 -304 -231 -230 -252 -258 -229 -182 -157 -120 -94 -74 -69 -64 -51 -40 -30 -14 -0 -0 -0 -0 -0 -0 -5 -8 -18 -27 -29 -30 -15 -5 -0 -0 -0 -0 -0 -0 -0 -0 -0
-606 -500 -433 -369 -251 -244 -257 -248 -202 -144 -126 -128 -105 -86 -63 -47 -34 -34 -29 -7 -0 -0 -0 -0 -0 -0 -7 -19 -32 -25 -27 -23 -14 -9 -0 -3 -2 -0 -0 -0 -0 -0 -0
-572 -502 -436 -346 -244 -205 -229 -219 -184 -111 -95 -104 -101 -85 -60 -38 -20 -24 -21 -1 -0 -0 -0 -0 -0 -3 -10 -30 -35 -27 -20 -18 -12 -5 -12 -12 -5 -0 -0 -0 -0 -0 -0
-518 -492 -418 -310 -242 -210 -196 -176 -141 -104 -98 -90 -82 -66 -49 -30 -7 -9 -10 -1 -0 -0 -0 -0 -0 -2 -28 -42 -35 -26 -22 -20 -10 -7 -25 -11 -0 -1 -0 -0 -0 -0 -0
-486 -444 -375 -296 -246 -222 -197 -181 -148 -131 -133 -98 -65 -44 -30 -16 -2 -2 -8 -1 -0 -0 -0 -0 -0 -19 -51 -50 -47 -38 -30 -15 -8 -8 -13 -13 -6 -1 -0 -0 -0 -0 -0
-468 -423 -362 -298 -266 -236 -201 -165 -140 -135 -126 -90 -50 -37 -25 -13 -1 -3 -8 -4 -5 -0 -0 -0 -8 -46 -64 -57 -49 -48 -37 -33 -11 -6 -12 -20 -7 -0 -0 -0 -0 -0 -0
-438 -406 -370 -322 -295 -272 -245 -212 -168 -143 -122 -89 -44 -32 -19 -18 -13 -10 -7 -5 -8 -3 -1 -7 -33 -53 -67 -60 -73 -75 -59 -41 -31 -16 -18 -15 -16 -2 -0 -0 -0 -0 -0
-389 -349 -322 -294 -277 -279 -268 -247 -201 -163 -132 -94 -56 -34 -23 -25 -31 -20 -12 -9 -16 -13 -20 -26 -52 -67 -61 -52 -59 -80 -65 -72 -53 -41 -25 -14 -11 -0 -0 -0 -0 -0 -0
-368 -331 -280 -252 -229 -224 -235 -231 -218 -183 -147 -94 -55 -36 -29 -24 -29 -28 -28 -15 -32 -49 -34 -40 -58 -60 -52 -50 -43 -45 -34 -48 -37 -19 -30 -22 -16 -2 -0 -0 -0 -0 -0
-348 -317 -295 -197 -194 -229 -209 -183 -168 -176 -145 -113 -67 -41 -16 -22 -16 -25 -33 -26 -38 -54 -35 -42 -52 -47 -45 -43 -39 -37 -29 -17 -32 -30 -40 -30 -18 -1 -0 -0 -0 -0 -0
-383 -346 -328 -279 -207 -228 -232 -208 -178 -148 -156 -119 -79 -44 -25 -26 -19 -24 -31 -24 -32 -54 -41 -39 -46 -41 -31 -38 -35 -17 -29 -32 -26 -43 -33 -34 -17 -4 -0 -0 -0 -1 -1
-311 -373 -409 -372 -287 -301 -259 -232 -193 -90 -161 -136 -131 -83 -54 -17 -13 -19 -24 -15 -22 -50 -57 -31 -27 -33 -29 -37 -26 -24 -40 -35 -33 -49 -53 -40 -20 -6 -3 -1 -0 -0 -0
-177 -257 -351 -335 -363 -317 -291 -248 -192 -114 -186 -188 -176 -166 -124 -38 -21 -38 -30 -26 -27 -47 -45 -37 -18 -22 -30 -26 -38 -59 -65 -53 -56 -31 -46 -33 -19 -2 -1 -3 -0 -0 -0
-97 -133 -184 -277 -290 -281 -281 -274 -266 -203 -178 -211 -260 -198 -181 -95 -31 -39 -49 -26 -24 -33 -17 -10 -37 -38 -58 -45 -43 -63 -54 -61 -60 -23 -29 -34 -26 -12 -0 -0 -0 -0 -0
-111 -145 -78 -118 -80 -30 -260 -291 -277 -267 -288 -205 -119 -173 -169 -75 -33 -35 -39 -33 -17 -14 -9 -3 -13 -14 -59 -50 -44 -63 -66 -35 -28 -26 -18 -22 -20 -11 -11 -0 -0 -0 -0
-0 -244 -213 -133 -91 -51 -27 -37 -17 -32 -315 -272 -183 -128 -163 -137 -88 -56 -32 -27 -12 -6 -2 -1 -6 -5 -32 -35 -28 -47 -49 -40 -64 -55 -31 -20 -13 -25 -29 -6 -3 -1 -0
-0 -0 -286 -227 -172 -86 -42 -25 -14 -14 -17 -242 -187 -142 -160 -158 -82 -59 -44 -41 -9 -3 -0 -0 -0 -6 -16 -15 -54 -47 -52 -50 -74 -32 -22 -21 -16 -33 -14 -3 -8 -7 -1
-0 -0 -0 -229 -158 -176 -114 -66 -31 -21 -13 -13 -213 -275 -221 -150 -106 -79 -68 -67 -20 -3 -0 -0 -0 -1 -12 -24 -29 -50 -58 -15 -59 -15 -21 -29 -16 -13 -34 -22 -13 -5 -9
-0 -0 -0 -28 -166 -146 -137 -107 -71 -40 -30 -23 -27 -266 -224 -160 -133 -133 -98 -90 -13 -30 -6 -0 -0 -0 -4 -9 -5 -9 -14 -0 -10 -19 -21 -25 -18 -10 -12 -22 -29 -8 -16
-0 -0 -0 -0 -278 -124 -77 -70 -67 -42 -57 -45 -38 -35 -253 -179 -150 -132 -124 -112 -77 -44 -30 -2 -0 -1 -0 -0 -0 -1 -0 -0 -0 -4 -7 -7 -11 -2 -0 -3 -30 -0 -16
-0 -0 -0 -0 -179 -123 -99 -93 -123 -156 -142 -140 -44 -69 -247 -191 -165 -119 -102 -82 -68 -45 -39 -7 -0 -8 -1 -0 -1 -0 -4 -0 -0 -4 -5 -1 -1 -4 -0 -0 -0 -0 -0
-0 -0 -0 -0 -122 -137 -128 -92 -82 -90 -103 -63 -85 -73 -166 -121 -99 -80 -60 -73 -38 -6 -71 -7 -0 -0 -3 -0 -0 -0 -0 -0 -12 -0 -14 -4 -0 -0 -0 -0 -0 -0 -0
-0 -193 -0 -0 -0 -226 -118 -96 -121 -137 -168 -194 -154 -123 -149 -94 -82 -43 -30 -34 -46 -76 -69 -26 -1 -0 -0 -2 -19 -14 -0 -0 -2 -1 -4 -1 -11 -0 -0 -0 -0 -0 -0
-0 -0 -112 -258 -306 -409 -102 -136 -181 -186 -183 -228 -216 -174 -63 -124 -115 -36 -31 -28 -97 -174 -54 -20 -8 -1 -5 -14 -1 -0 -0 -0 -0 -4 -0 -0 -0 -1 -0 -0 -2 -0 -0
-0 -0 -62 -133 -190 -395 -94 -112 -167 -243 -212 -166 -189 -155 -98 -122 -92 -82 -61 -66 -141 -157 -69 -23 -0 -0 -0 -0 -0 -2 -1 -2 -3 -4 -19 -9 -16 -7 -0 -0 -0 -0 -0
Wind_Speed
26 29 29 24 20 27 33 32 27 27 31 30 29 29 32 33 34 35 35 37 37 37 37 36 33 31 31 31 33 31 28 30 31 35 35 30 30 31 30 29 26 26 25
37 36 38 34 24 24 29 32 32 27 30 33 33 33 33 33 33 35 37 36 35 36 36 35 33 31 33 31 31 29 27 30 31 36 34 39 19 30 33 37 23 24 26
38 36 41 40 30 25 29 32 33 32 30 34 36 36 36 35 33 35 36 36 34 35 35 34 33 31 30 31 30 29 28 31 33 34 30 29 28 33 34 29 29 27 27
42 39 42 44 40 36 32 35 37 36 34 33 35 38 38 37 33 34 34 34 35 36 35 34 34 32 30 31 31 29 29 31 30 30 27 25 27 33 33 34 34 32 29
40 39 39 45 42 43 41 37 35 36 38 37 36 37 37 38 36 35 34 34 36 37 36 37 36 33 30 31 33 33 29 28 28 24 23 25 27 30 36 34 32 32 27
38 38 39 43 44 42 43 41 40 38 39 40 39 38 37 38 37 36 34 36 37 36 36 37 37 35 29 29 34 35 32 30 29 21 24 27 26 28 32 32 30 28 27
40 40 38 38 39 37 40 41 40 37 39 40 41 39 38 38 36 35 34 33 35 35 35 39 37 35 30 28 31 35 33 35 28 23 23 27 24 28 27 27 27 27 28
40 39 36 37 39 41 40 39 38 36 36 38 40 37 37 38 36 35 34 35 34 33 36 38 37 36 30 29 31 33 34 32 32 29 21 24 22 27 26 24 24 26 26
43 37 34 33 34 33 36 37 36 35 35 36 37 35 37 37 36 35 34 35 33 34 40 39 38 35 32 30 30 34 33 34 30 28 25 22 23 25 26 24 25 25 25
44 41 37 33 33 31 31 34 35 34 35 36 36 36 36 38 36 35 34 33 33 36 40 40 38 34 32 30 29 32 34 33 30 26 30 19 23 22 24 21 24 24 24
44 38 38 39 33 31 30 32 31 33 33 34 34 37 36 36 34 33 32 32 34 38 40 39 40 37 33 32 33 32 33 24 27 19 16 14 20 23 19 20 22 23 25
43 40 36 33 34 33 31 28 28 26 29 30 31 34 36 35 35 35 32 32 34 37 39 39 38 37 32 29 30 32 27 25 21 22 16 12 20 21 21 21 21 25 17
45 42 39 33 32 33 30 29 28 28 30 30 30 33 38 37 35 35 31 30 32 36 34 37 36 33 31 30 30 29 26 25 23 23 17 17 20 21 16 24 27 21 15
48 47 44 34 32 31 30 29 31 31 31 30 32 34 39 37 34 34 30 29 32 33 34 36 34 34 31 29 29 23 27 24 21 23 18 19 21 20 24 27 25 21 17
47 54 48 47 34 30 34 34 33 33 34 31 32 32 35 35 32 33 30 29 30 33 33 35 33 30 30 28 25 29 30 28 26 21 24 23 21 21 24 24 23 17 16
nan 46 47 49 46 34 34 37 37 38 35 36 31 33 32 33 34 32 31 31 30 32 33 34 31 31 29 27 28 29 28 26 25 24 24 26 20 17 23 25 19 16 16
nan nan 49 46 50 47 38 37 40 40 40 37 36 35 34 35 35 33 32 32 30 31 35 33 31 32 29 28 28 33 29 nan nan nan nan nan 22 17 23 21 15 14 16
nan nan 44 46 50 52 43 39 40 39 43 40 37 38 34 35 36 37 34 31 30 31 33 30 32 30 28 26 31 21 nan nan nan nan nan nan nan 20 21 20 19 14 14
nan nan nan 45 46 47 47 39 43 43 43 44 38 40 34 36 36 35 33 30 32 29 32 28 31 28 27 21 31 nan nan nan nan nan nan nan nan 23 27 28 24 22 21
nan nan nan nan 45 48 51 45 46 45 44 42 39 37 39 38 36 35 32 29 30 28 30 28 29 25 24 22 nan nan nan nan nan nan nan nan nan nan nan nan nan nan nan
nan nan nan nan 45 50 49 51 47 41 40 40 40 38 41 40 36 31 31 29 27 28 28 28 25 25 24 26 20 nan nan nan nan nan nan nan nan nan nan nan nan nan nan
nan nan nan nan 46 46 48 46 47 42 39 38 43 40 40 36 33 31 30 28 26 28 29 28 25 24 24 28 nan nan nan nan nan nan nan nan nan nan nan nan nan nan nan
nan nan nan nan nan 45 44 52 54 53 54 48 47 42 39 34 34 32 32 29 26 29 27 25 24 24 27 28 27 nan nan nan nan nan nan nan nan nan nan nan nan nan nan
nan nan nan nan nan 41 47 51 46 42 42 42 43 38 40 32 34 35 34 29 26 29 26 25 26 24 28 30 nan nan nan nan nan nan nan nan nan nan nan nan nan nan nan
nan nan 58 nan 53 nan 44 46 48 41 37 43 44 39 40 34 33 41 36 30 27 29 25 25 27 26 27 32 33 nan nan nan nan nan nan nan nan nan nan nan nan nan nan
nan nan nan 52 53 52 39 39 39 35 42 46 43 41 42 37 41 40 34 32 28 27 25 25 28 29 27 32 31 31 nan nan nan nan nan nan nan nan nan nan nan nan nan
Wind_Direction
291 295 305 299 302 303 305 303 297 294 295 295 297 304 310 313 318 321 323 325 323 323 321 317 313 311 311 311 310 307 310 310 300 285 281 283 287 285 281 274 274 286 278
281 293 303 302 301 299 302 302 299 293 293 295 297 299 304 308 311 316 320 324 321 319 318 317 314 316 312 307 306 306 302 305 296 289 284 286 284 282 281 275 280 280 278
285 291 294 299 300 301 301 301 300 299 297 295 298 298 303 305 307 313 318 319 318 317 316 316 317 320 315 306 300 298 297 299 298 290 277 260 265 280 277 283 281 282 281
293 291 290 294 299 304 300 300 299 303 300 294 295 298 300 302 302 307 310 312 314 315 316 317 317 317 311 305 298 295 297 299 295 284 264 258 265 279 283 283 284 286 282
291 293 295 298 298 300 298 296 297 302 300 297 296 296 298 300 302 305 306 310 310 313 317 319 320 317 309 302 298 297 296 301 290 270 264 249 249 270 280 282 282 280 276
287 289 294 298 299 299 298 296 299 300 299 296 294 296 298 299 301 304 306 310 311 313 317 319 317 316 312 304 301 299 296 294 290 261 257 260 257 277 283 280 277 277 276
283 283 287 292 297 297 299 299 298 297 296 294 292 294 297 298 299 298 301 306 308 311 314 314 315 313 312 301 297 297 296 296 298 284 259 252 261 278 282 282 277 276 270
279 279 286 294 295 298 297 295 296 298 298 295 293 293 297 298 296 295 299 299 303 311 310 312 309 310 312 304 301 294 296 293 298 301 264 252 265 277 279 281 280 274 270
267 269 274 281 286 293 293 293 295 298 299 298 297 296 298 298 294 293 296 300 303 307 309 312 311 311 314 304 298 298 296 299 293 296 280 255 279 280 278 279 277 271 271
273 278 283 277 270 277 287 290 293 295 294 292 294 295 296 295 294 292 294 299 303 306 310 311 311 312 309 301 291 291 288 295 285 287 273 256 284 278 276 279 274 265 264
276 283 295 291 287 282 280 282 288 292 293 293 292 293 289 284 285 287 288 296 299 303 308 310 309 308 303 295 290 286 287 277 277 269 266 251 281 285 279 275 269 266 254
282 283 290 293 293 285 276 270 277 283 281 281 283 284 282 283 282 280 284 293 298 303 307 309 307 304 294 283 279 287 281 273 267 265 251 261 280 289 289 279 272 266 241
270 276 287 287 287 291 279 270 273 277 275 277 283 280 280 278 277 275 276 282 288 299 297 299 298 294 294 289 278 275 277 269 265 263 265 268 277 279 285 274 260 270 262
275 278 277 276 276 279 273 269 280 278 276 276 281 281 280 280 279 276 277 281 289 293 298 298 297 294 291 287 287 285 285 271 253 252 255 274 288 280 263 274 279 263 264
273 278 279 275 269 263 271 271 275 278 280 282 284 279 278 280 284 278 276 282 289 293 298 300 295 289 287 286 281 290 280 268 258 246 244 256 265 278 270 274 279 266 268
nan 266 271 284 282 263 268 271 273 274 278 283 281 279 278 276 281 278 280 283 290 297 297 296 294 287 284 282 281 289 273 265 263 274 243 227 230 267 270 264 268 277 276
nan nan 276 281 283 284 275 271 271 273 276 278 277 281 284 276 277 281 276 282 294 296 299 293 285 285 286 293 287 285 262 nan nan nan nan nan 215 258 267 283 246 255 270
nan nan 269 275 283 286 278 272 266 269 276 275 273 274 281 274 273 276 277 282 293 299 302 296 290 295 291 299 301 268 nan nan nan nan nan nan nan 231 254 271 244 252 261
nan nan nan 268 276 281 281 269 270 260 260 265 265 271 272 268 270 272 275 282 294 302 300 295 289 297 293 297 303 nan nan nan nan nan nan nan nan 228 243 241 256 250 260
nan nan nan nan 266 273 275 265 258 259 259 260 265 264 268 261 266 269 277 286 294 303 300 292 295 293 292 288 nan nan nan nan nan nan nan nan nan nan nan nan nan nan nan
nan nan nan nan 263 265 268 269 266 263 260 260 261 264 267 262 264 270 271 285 296 304 301 292 295 293 286 287 287 nan nan nan nan nan nan nan nan nan nan nan nan nan nan
nan nan nan nan 257 261 261 265 260 261 250 252 253 253 260 261 264 265 275 281 294 296 295 289 296 285 281 287 nan nan nan nan nan nan nan nan nan nan nan nan nan nan nan
nan nan nan nan nan 262 265 260 249 248 247 242 247 250 254 260 262 264 277 275 287 292 287 289 298 296 286 280 281 nan nan nan nan nan nan nan nan nan nan nan nan nan nan
nan nan nan nan nan 250 258 263 265 256 252 255 254 254 254 255 255 262 264 274 286 287 281 292 294 295 288 282 nan nan nan nan nan nan nan nan nan nan nan nan nan nan nan
nan nan 240 nan 240 nan 255 259 260 258 241 244 246 253 252 246 250 258 263 271 282 279 278 292 295 295 292 286 279 nan nan nan nan nan nan nan nan nan nan nan nan nan nan
nan nan nan 235 235 227 243 251 256 259 247 242 244 246 243 236 239 255 257 263 272 278 281 285 290 292 292 290 282 274 nan nan nan nan nan nan nan nan nan nan nan nan nan